Regional Weather Roundup
Issued by NWS

Home | Current Version | Previous Version | Text Only | Print | Product List | Glossary Off
Versions: 1 2 3 4 5 6 7 8 9 10 11 12 13 14 15 16 17 18 19 20 21 22 23 24 25 26 27 28 29 30 31 32 33 34 35 36 37 38 39 40 41 42 43 44 45 46 47 48 49 50

886
ASUS43 KFSD 171110
RWRSD

WEATHER ROUNDUP FOR SOUTH DAKOTA
NATIONAL WEATHER SERVICE SIOUX FALLS SD
600 AM CDT TUE OCT 17 2017

NOTE: "FAIR" INDICATES FEW OR NO CLOUDS BELOW 12,000 FEET WITH NO
SIGNIFICANT WEATHER AND/OR OBSTRUCTIONS TO VISIBILITY.


SDZ001>005-009-010-012>017-171200-
NORTHWEST AND NORTH CENTRAL SOUTH DAKOTA

CITY           SKY/WX    TMP DP  RH WIND       PRES   REMARKS
BUFFALO          N/A     46  25  43 W12       29.94F
FAITH            N/A     46  28  49 SW8       30.00F
MOBRIDGE       CLEAR     39  33  79 SE3       29.97S
$$

SDZ012>016-024>037-041>051-057-063-072>074-171200-
SOUTHWEST AND SOUTH CENTRAL SOUTH DAKOTA

CITY           SKY/WX    TMP DP  RH WIND       PRES   REMARKS
RAPID CTY ARPT CLEAR     45  24  43 W8        30.06F
PIERRE         CLEAR     42  34  73 SW7       30.02R
CUSTER         CLOUDY    36  19  50 NW5       30.17S
ELLSWORTH AFB  CLEAR     43  24  47 W7        30.05F
PHILIP         CLEAR     42  35  76 W9        30.04S
PINE RIDGE     CLEAR     28  26  92 NE5       30.11S WCI  23
SPEARFISH      FAIR      46  21  36 CALM      30.08F
WINNER         FAIR      42  35  76 SW7       30.06S
$$

SDZ004>011-016>023-039-040-171200-
NORTHEAST SOUTH DAKOTA

CITY           SKY/WX    TMP DP  RH WIND       PRES   REMARKS
ABERDEEN       CLOUDY    31  30  96 CALM      30.00R
WATERTOWN      CLEAR     38  37  97 CALM      30.00R
BROOKINGS      CLEAR     39  36  89 SE5       30.02S
SISSETON         N/A     42  37  82 W3        29.97R
$$

SDZ017-020-022-023-036>040-048>070-171200-
SOUTHEAST SOUTH DAKOTA

CITY           SKY/WX    TMP DP  RH WIND       PRES   REMARKS
SIOUX FALLS    PTCLDY    40  38  93 CALM      30.03S
HURON          CLEAR     39  37  92 CALM      30.01S
CHAMBERLAIN    CLEAR     41  39  91 W6        30.05R
MITCHELL       CLEAR     39  37  92 S5        30.04R
YANKTON        CLEAR     42  38  85 CALM      30.05R
$$

ABBREVIATIONS USED IN REMARKS
   TC - TEMPERATURE IN CELSIUS
  WCI - WIND CHILL INDEX
   HX - HEAT INDEX
  VSB - VISIBILITY





USA.gov is the U.S. government's official web portal to all federal, state and local government web resources and services.